COSMOS 1691 DEB, 16267

Orbit data source: Space-Track

COSMOS 1691 DEB, 16267 is space debris in LEO originally from a launch on Wed, 09 Oct 1985 UTC launched from the Plesetsk Missile And Space Complex (PKMTR). Debris objects in space refer to the collection of defunct objects orbiting the Earth. Examples of debris include non-operational satellites, rocket bodies, and fragments generated from explosions, collisions, or faulty payload assembly.

Loading next visibility...
Identifier
16267, 1985-094L
Orbit
LEO
Country
Flag of CISCIS
Related business
Manufacturer
Unknown
Mission
Spacecraft
Bus & Motor
Unknown
Mass
Unknown
Launch date (UTC)
1985-10-09 (40 years ago)
Launch vehicle
Unknown
Launch site
Plesetsk Missile And Space Complex (PKMTR)
Object type
Payload
Rocket body
Debris
Shape & HBR
Unknown
Radar Cross Section
Small (<0.1 m²)

Expand to show TLE details & history
Last TLE update: 2 days ago

TLE from 2 days ago
0 COSMOS 1691 DEB
1 16267U 85094L   25241.77260624  .00003539  00000-0  88487-2 0  9993
2 16267  82.6281 358.0476 0074413 140.3619 348.1346 13.18421003505964
Epoch: 2025-08-29T18:32Z
TLE epoch observation values (Epoch: 2025-08-29T18:32:33.179Z)
Latitude
51.18057°
Longitude
-87.51296°
Altitude
1,143.83 km
Speed
7.312 km/s
True Right ascension
11h 15m 22s
True Declination
51° 01' 16"
Sunlit
Object was in daylight at epoch
Visualization orbit readout
Latitude
Unknown
Longitude
Unknown
Altitude
Unknown
Speed
Unknown
Apparent Right ascension
Unknown
Apparent Declination
Unknown
Sunlit
N/A
Visualization observer readout
Local Sidereal Time
22:15:29
Azimuth
Unknown
Elevation
Unknown
Doppler factor
Unknown
Orbital elements
Apogee altitude
1,244.299 km
Perigee altitude
1,131.695 km
Semi-major axis
7,566.134 km
Eccentricity
0.00744
Inclination
82.6281°
RAAN
358.0476°
Arg. of periapsis
140.3619°
True anomaly
347.95766°
Mean anomaly
348.1346°
Eccentric anomaly
348.04629°
Mean motion
3.29786 °/min
Orbital period
109.16 mins
BSTAR
0.0088487
Loading maneuver chart data...
Computing Atmospheric mass density...
Loading historical data...
Loading historical data...
Loading historical data...
Loading historical data...
Loading historical data...
Loading historical data...
Loading historical data...

Documentation

Showing up to 5 results
|